Location: Recife
(8.0585°S, 34.8848°W)
Time: 13:06:02
(UTC-03:00)

Vanguard 2 - Pass Details

Date: 16 April 2026
Orbit: 553 x 2895 km, 32.9° (Epoch: 13 May)

Event Time Altitude Azimuth Distance (km) Brightness Sun altitude
Rises 21:28:52 0° 279° (W) 5,451 12.3 -62.7°
Reaches altitude 10° 21:32:18 10° 272° (W) 4,732 11.8 -63.5°
Enters shadow 21:38:06 29° 254° (WSW) 3,793 11.0 -64.9°
